Temp
81 82 74 76 77 76 76 76 76 76 76 77 77 77 77 76 76 76 76 77 76 77 77 78 78 77 78 77 76 76 76 76 76 76 76 77 77 76 75 75 75 78 75
81 83 74 75 76 76 76 76 76 76 76 76 77 77 77 76 76 76 76 76 76 77 77 78 77 77 77 76 76 76 75 75 75 74 74 75 75 76 75 75 75 77 75
80 81 81 74 76 75 75 75 75 75 76 76 76 76 76 77 76 76 76 76 76 77 77 77 77 77 77 76 75 75 75 75 74 73 74 80 78 75 75 74 74 75 75
80 81 82 73 75 75 75 74 74 75 76 76 76 76 76 76 76 76 76 76 76 77 78 78 77 77 76 75 75 75 75 74 73 72 80 81 78 75 76 75 74 75 74
79 80 79 72 74 75 75 74 74 75 75 76 76 76 76 76 76 76 76 75 75 76 77 78 78 77 75 75 74 75 74 73 72 74 82 81 77 76 76 75 74 74 73
77 79 75 71 73 74 75 75 74 74 74 75 75 76 76 76 75 75 75 75 75 75 77 78 78 76 74 74 74 74 73 72 70 82 81 79 78 75 76 75 74 72 72
70 73 72 69 70 71 71 72 74 74 74 74 74 75 75 75 75 75 74 75 74 75 76 77 76 75 74 73 73 73 72 70 79 82 80 79 79 75 75 74 73 72 72
74 74 71 66 67 68 69 69 70 71 72 73 73 73 74 74 74 74 74 74 74 74 75 75 75 74 73 73 73 72 70 68 75 81 79 79 75 74 74 73 73 72 72
75 73 73 74 71 66 66 66 67 68 68 68 70 71 71 71 71 72 72 73 73 74 73 74 74 73 73 73 72 70 67 66 80 80 79 79 71 74 74 73 72 72 72
74 73 72 72 72 73 73 62 65 65 65 65 64 64 64 66 67 68 67 69 72 72 72 72 72 72 72 72 70 68 65 65 79 80 78 77 71 74 74 73 73 72 72
72 72 72 71 71 71 71 68 66 64 63 63 63 61 63 66 68 68 68 68 70 71 71 72 71 71 70 68 68 65 64 76 79 79 77 69 71 74 74 73 72 72 72
71 71 71 70 69 70 72 70 70 71 70 69 67 66 64 62 62 64 63 63 65 66 70 71 71 69 66 78 76 65 75 77 78 78 77 68 72 74 74 73 72 72 71
70 71 70 68 69 68 68 69 70 70 69 68 68 67 66 63 64 64 66 66 65 62 68 71 72 74 74 77 77 76 76 76 78 78 75 67 71 73 74 73 72 72 71
68 68 68 69 67 66 68 68 69 68 68 69 68 67 66 65 65 62 59 58 64 65 64 67 71 73 74 75 76 74 74 75 76 77 74 64 68 73 73 73 72 71 71
66 66 66 67 66 66 65 67 67 67 67 67 68 67 67 66 64 65 62 60 57 58 64 64 64 67 72 74 75 74 71 70 73 76 76 61 64 71 73 73 73 72 71
64 64 64 64 65 65 64 63 64 65 65 66 66 66 66 66 65 64 64 61 60 56 55 56 63 64 65 69 72 72 71 69 71 70 73 73 63 67 72 72 72 72 72
63 63 62 63 64 63 63 62 62 63 62 62 63 64 64 65 65 64 63 63 61 60 58 55 55 63 63 64 66 71 71 70 70 70 69 72 70 61 67 70 71 72 71
62 60 61 61 61 60 60 60 60 60 60 60 61 62 61 62 63 63 63 62 63 61 60 57 54 53 61 62 63 64 68 69 69 70 68 69 71 71 64 67 69 70 71
60 61 60 60 58 57 57 57 57 56 56 57 59 59 59 59 59 60 61 62 61 62 60 60 57 55 54 60 63 63 64 66 68 68 68 65 68 70 69 64 65 66 68
59 59 59 58 57 55 55 55 55 55 55 55 54 55 54 56 57 57 58 59 60 59 60 60 57 56 55 54 55 61 62 65 65 66 66 64 65 67 68 64 63 64 64
58 57 56 55 55 54 52 51 51 50 51 51 53 52 52 52 53 53 55 56 57 57 59 59 58 55 53 52 50 56 58 61 62 62 64 62 62 65 65 64 63 64 64
55 55 54 54 53 52 51 49 49 48 49 49 49 49 49 50 50 51 51 52 54 54 56 57 57 56 55 56 50 54 49 48 48 58 61 60 61 62 64 62 62 65 66
54 53 52 51 50 50 48 48 47 48 48 47 48 48 48 48 48 49 50 51 51 52 52 54 55 55 53 55 54 52 48 50 49 44 45 52 59 60 61 63 64 62 64
52 51 51 49 48 48 47 45 43 41 41 45 45 46 45 46 46 47 47 48 48 49 49 51 54 54 55 52 54 54 56 51 49 42 40 43 44 53 58 59 61 63 63
50 49 48 47 46 46 45 44 42 41 42 43 43 42 43 44 45 45 45 45 46 48 49 49 50 52 54 54 54 54 52 52 52 48 44 42 39 43 50 55 55 58 61
49 48 46 45 44 44 43 42 41 39 39 39 39 39 40 42 43 43 43 44 45 45 46 47 48 50 51 53 54 55 53 50 50 50 50 51 48 45 45 47 53 52 54
MSLP
1011.72 1011.70 1012.24 1012.26 1012.49 1012.58 1012.74 1012.80 1012.87 1013.01 1013.17 1013.22 1013.28 1013.49 1013.65 1013.77 1013.97 1014.01 1014.00 1014.10 1014.13 1014.09 1014.13 1014.33 1014.49 1014.68 1015.00 1015.27 1015.47 1015.59 1015.75 1015.82 1015.90 1016.02 1016.05 1016.10 1016.21 1016.40 1016.66 1016.80 1016.88 1017.03 1017.39
1011.84 1011.59 1012.06 1012.36 1012.43 1012.62 1012.83 1013.02 1013.08 1013.25 1013.25 1013.48 1013.49 1013.59 1013.69 1013.85 1013.98 1014.09 1014.21 1014.22 1014.33 1014.40 1014.33 1014.48 1014.59 1014.77 1015.03 1015.29 1015.57 1015.69 1015.80 1015.97 1016.07 1016.09 1016.30 1016.37 1016.50 1016.64 1016.93 1016.99 1016.99 1017.35 1017.67
1011.69 1011.64 1011.89 1012.39 1012.51 1012.70 1012.97 1013.18 1013.35 1013.44 1013.48 1013.62 1013.67 1013.72 1013.80 1013.84 1013.92 1014.05 1014.22 1014.36 1014.45 1014.49 1014.62 1014.67 1014.82 1014.98 1015.19 1015.40 1015.52 1015.74 1015.85 1016.00 1016.15 1016.28 1016.42 1016.23 1016.54 1016.80 1017.14 1017.22 1017.28 1017.63 1017.82
1011.85 1011.81 1011.91 1012.45 1012.64 1012.81 1013.08 1013.23 1013.42 1013.59 1013.64 1013.71 1013.75 1013.84 1013.91 1014.03 1014.09 1014.18 1014.19 1014.34 1014.42 1014.45 1014.47 1014.69 1014.86 1014.92 1015.21 1015.43 1015.57 1015.65 1015.82 1016.00 1016.20 1016.36 1016.22 1016.04 1016.50 1016.94 1017.21 1017.26 1017.60 1017.79 1018.01
1012.10 1012.11 1012.34 1012.82 1012.88 1012.99 1013.13 1013.28 1013.38 1013.58 1013.66 1013.74 1013.79 1013.85 1013.98 1014.11 1014.19 1014.22 1014.30 1014.37 1014.47 1014.42 1014.40 1014.49 1014.69 1014.84 1014.98 1015.26 1015.53 1015.62 1015.75 1015.99 1016.31 1016.36 1015.78 1016.13 1016.51 1016.86 1017.12 1017.43 1017.77 1018.00 1018.18
1012.59 1012.55 1012.98 1013.22 1013.21 1013.16 1013.20 1013.26 1013.31 1013.51 1013.56 1013.58 1013.67 1013.71 1013.80 1013.93 1014.01 1014.18 1014.19 1014.26 1014.32 1014.47 1014.43 1014.29 1014.35 1014.68 1015.01 1015.05 1015.41 1015.60 1015.79 1016.06 1016.34 1015.93 1015.85 1016.23 1016.46 1016.91 1016.97 1017.53 1017.94 1018.20 1018.36
1013.50 1013.46 1013.47 1013.58 1013.46 1013.43 1013.45 1013.40 1013.32 1013.37 1013.49 1013.58 1013.58 1013.63 1013.68 1013.79 1013.90 1013.92 1013.91 1013.98 1014.16 1014.17 1014.16 1014.16 1014.20 1014.54 1014.89 1014.99 1015.25 1015.59 1015.73 1016.03 1015.94 1015.55 1015.93 1016.23 1016.39 1016.94 1017.12 1017.69 1018.17 1018.45 1018.57
1013.77 1013.78 1013.77 1013.84 1013.89 1013.83 1013.76 1013.64 1013.52 1013.57 1013.49 1013.42 1013.41 1013.54 1013.55 1013.63 1013.68 1013.74 1013.76 1013.80 1013.88 1014.04 1014.05 1013.99 1014.19 1014.40 1014.61 1014.85 1015.21 1015.52 1015.79 1016.01 1015.99 1015.51 1015.82 1016.05 1016.34 1016.87 1017.14 1017.75 1018.30 1018.51 1018.79
1014.05 1014.09 1014.14 1013.95 1013.84 1014.07 1014.10 1013.97 1013.78 1013.77 1013.75 1013.60 1013.54 1013.49 1013.44 1013.48 1013.59 1013.62 1013.60 1013.72 1013.80 1013.87 1014.02 1013.97 1013.88 1014.19 1014.40 1014.52 1014.89 1015.35 1015.76 1015.94 1015.69 1015.57 1015.68 1015.76 1016.27 1016.59 1017.07 1017.45 1018.16 1018.50 1018.84
1014.24 1014.27 1014.42 1014.40 1014.20 1014.19 1014.18 1014.28 1014.13 1014.00 1013.89 1013.76 1013.71 1013.73 1013.56 1013.50 1013.38 1013.34 1013.37 1013.45 1013.44 1013.60 1013.70 1013.80 1013.85 1014.06 1014.33 1014.42 1014.70 1015.06 1015.58 1015.92 1015.63 1015.37 1015.73 1015.80 1016.29 1016.39 1016.85 1017.35 1017.78 1018.19 1018.70
1014.32 1014.50 1014.60 1014.56 1014.51 1014.53 1014.47 1014.56 1014.27 1014.28 1014.17 1014.07 1013.89 1013.82 1013.61 1013.27 1013.10 1013.12 1012.92 1013.06 1013.00 1013.03 1013.30 1013.43 1013.66 1013.90 1014.06 1014.31 1014.64 1014.97 1015.35 1015.38 1015.21 1015.10 1015.50 1015.73 1016.11 1016.28 1016.63 1017.09 1017.60 1018.05 1018.42
1014.29 1014.63 1014.78 1014.75 1014.83 1014.85 1014.71 1014.67 1014.47 1014.29 1014.15 1014.13 1014.19 1014.21 1014.11 1013.68 1012.96 1012.78 1012.67 1012.79 1013.00 1012.82 1012.69 1012.96 1013.21 1013.40 1013.88 1013.75 1014.12 1014.81 1014.86 1014.76 1014.85 1014.78 1015.04 1015.49 1015.69 1015.96 1016.41 1016.91 1017.38 1017.79 1018.33
1014.40 1014.45 1014.73 1014.90 1015.05 1015.19 1015.18 1015.05 1014.79 1014.57 1014.46 1014.35 1014.13 1014.06 1013.93 1013.69 1013.32 1013.39 1012.55 1011.96 1012.53 1012.50 1012.74 1012.66 1012.89 1013.10 1013.21 1012.94 1013.09 1013.58 1013.86 1014.10 1014.25 1014.49 1014.54 1015.20 1015.30 1015.57 1015.97 1016.49 1017.21 1017.52 1017.88
1014.48 1014.72 1014.99 1015.10 1015.18 1015.36 1015.26 1015.11 1015.03 1014.83 1014.72 1014.40 1014.26 1014.03 1013.78 1013.64 1013.47 1013.24 1013.05 1013.10 1012.07 1011.91 1012.12 1012.14 1012.11 1012.34 1012.46 1012.42 1012.51 1012.96 1013.17 1013.40 1013.71 1013.73 1014.13 1014.78 1014.95 1015.05 1015.64 1016.17 1016.63 1017.07 1017.70
1014.72 1014.95 1015.07 1015.07 1015.12 1015.13 1015.11 1015.02 1014.92 1014.82 1014.66 1014.59 1014.29 1014.09 1013.75 1013.46 1013.27 1013.03 1012.96 1012.88 1012.98 1012.57 1012.18 1011.86 1011.95 1011.80 1011.89 1011.83 1011.93 1012.24 1012.78 1013.14 1013.13 1013.29 1013.62 1014.31 1014.65 1014.58 1015.09 1015.55 1016.14 1016.75 1017.25
1014.79 1014.93 1015.09 1015.16 1015.18 1015.17 1015.22 1015.26 1015.07 1014.79 1014.53 1014.36 1014.16 1013.94 1013.66 1013.25 1012.92 1012.76 1012.62 1012.63 1012.47 1012.59 1012.78 1012.70 1012.07 1011.41 1011.39 1011.37 1011.49 1011.61 1011.95 1012.58 1012.64 1013.10 1013.24 1013.46 1014.20 1014.18 1014.40 1015.05 1015.49 1016.17 1016.73
1014.88 1015.17 1015.27 1015.21 1015.24 1015.31 1015.27 1015.18 1014.94 1014.72 1014.63 1014.20 1013.88 1013.65 1013.45 1013.02 1012.57 1012.32 1012.20 1011.99 1011.95 1011.97 1011.92 1012.09 1011.98 1011.25 1010.77 1010.97 1011.03 1010.96 1011.33 1011.69 1011.94 1012.34 1012.91 1013.02 1013.29 1013.83 1013.99 1014.37 1014.97 1015.39 1016.10
1015.09 1015.21 1015.32 1015.38 1015.35 1015.41 1015.38 1015.31 1015.07 1014.82 1014.48 1014.00 1013.69 1013.25 1012.92 1012.76 1012.41 1012.01 1011.69 1011.52 1011.25 1011.32 1011.26 1011.45 1011.31 1011.01 1010.04 1009.80 1010.19 1010.39 1010.44 1010.95 1011.02 1011.42 1012.10 1012.53 1012.48 1012.88 1013.54 1013.76 1014.40 1014.78 1015.27
1015.19 1015.21 1015.23 1015.34 1015.32 1015.42 1015.44 1015.35 1015.00 1014.74 1014.53 1014.04 1013.48 1013.16 1012.64 1012.47 1012.27 1011.74 1011.27 1010.92 1010.93 1010.72 1010.49 1010.57 1010.61 1010.39 1010.73 1009.48 1008.83 1009.39 1009.44 1009.85 1010.37 1010.46 1011.14 1011.79 1012.00 1012.27 1012.64 1013.17 1013.72 1014.11 1014.60
1015.24 1015.32 1015.37 1015.37 1015.46 1015.62 1015.36 1015.01 1014.57 1014.35 1014.01 1013.74 1013.49 1013.26 1012.90 1012.45 1012.09 1011.61 1011.04 1010.74 1010.57 1010.24 1009.94 1009.82 1009.89 1009.99 1009.96 1009.88 1009.63 1008.58 1008.41 1008.40 1009.35 1009.44 1009.94 1010.87 1011.24 1011.63 1011.92 1012.51 1013.21 1013.01 1014.03
1015.09 1015.26 1015.38 1015.48 1015.47 1015.30 1015.05 1014.71 1014.23 1013.89 1013.76 1013.52 1013.35 1013.09 1012.77 1012.40 1012.05 1011.54 1010.92 1010.51 1010.22 1009.70 1009.33 1009.17 1009.21 1009.29 1009.32 1009.38 1009.77 1008.72 1007.42 1007.33 1008.12 1009.05 1009.03 1009.66 1010.32 1010.69 1011.30 1011.74 1012.30 1012.05 1013.23
1015.18 1015.18 1015.27 1015.25 1015.32 1015.28 1015.19 1014.97 1014.69 1014.10 1013.67 1013.35 1013.17 1012.89 1012.61 1012.15 1011.75 1011.28 1010.79 1010.33 1009.96 1009.52 1009.05 1008.76 1008.53 1008.53 1008.37 1008.91 1008.64 1008.96 1008.11 1008.05 1008.14 1007.72 1008.36 1008.71 1009.04 1010.00 1010.13 1010.76 1010.64 1010.98 1011.95
1014.85 1015.07 1015.24 1015.34 1015.38 1015.28 1015.17 1014.78 1014.33 1013.83 1013.19 1012.75 1012.36 1012.14 1011.89 1011.66 1011.40 1010.97 1010.53 1010.06 1009.58 1009.33 1008.95 1008.65 1008.30 1007.92 1007.58 1007.92 1008.05 1008.09 1007.50 1007.21 1007.64 1007.86 1007.90 1008.05 1008.28 1008.84 1009.41 1009.67 1009.95 1010.46 1010.66
1015.04 1015.24 1015.20 1015.24 1015.20 1015.11 1015.01 1014.56 1014.12 1013.67 1012.93 1012.46 1012.17 1011.83 1011.50 1011.23 1010.91 1010.67 1010.34 1009.85 1009.35 1009.01 1008.62 1008.28 1008.07 1007.54 1007.18 1006.65 1007.19 1006.97 1006.43 1006.24 1006.62 1007.72 1008.32 1008.11 1008.43 1008.15 1008.43 1008.79 1009.12 1009.58 1010.10
1014.96 1014.99 1015.17 1015.18 1015.04 1014.88 1014.69 1014.37 1013.84 1013.31 1012.89 1012.44 1012.03 1011.52 1011.09 1010.63 1010.33 1010.13 1009.91 1009.50 1009.04 1008.54 1008.09 1007.78 1007.43 1006.84 1006.49 1006.14 1005.78 1005.95 1006.04 1006.07 1006.10 1006.96 1007.39 1007.67 1008.40 1008.12 1008.04 1008.28 1008.34 1008.88 1009.06
1014.85 1015.11 1015.22 1015.06 1014.81 1014.63 1014.37 1013.98 1013.54 1013.05 1012.61 1012.18 1011.65 1011.19 1010.61 1010.06 1009.60 1009.32 1009.03 1008.71 1008.54 1008.21 1007.71 1007.34 1006.95 1006.34 1005.88 1005.48 1005.19 1005.04 1004.90 1004.82 1004.35 1005.09 1005.82 1005.71 1005.77 1006.92 1007.71 1008.12 1008.06 1008.20 1008.58
Wind_Speed
1 2 5 7 9 10 9 8 8 7 6 6 11 11 11 10 9 8 8 7 8 10 12 13 14 16 15 14 14 14 14 15 14 15 13 16 19 19 20 16 16 16 17
8 6 7 8 11 11 9 8 7 7 7 6 8 10 10 10 10 9 8 8 7 8 9 11 13 14 14 14 13 13 14 14 13 10 12 15 18 20 19 16 15 16 16
6 2 8 5 8 9 8 8 8 7 7 7 7 9 10 10 11 10 10 9 9 9 9 10 12 13 12 13 13 14 14 13 9 13 14 13 15 19 19 18 18 17 17
6 3 5 6 4 6 8 9 9 9 8 8 9 8 8 9 11 12 12 11 12 12 11 11 13 14 13 14 14 15 14 11 10 12 13 14 14 20 19 19 18 17 17
6 4 3 1 4 6 7 9 10 11 11 11 11 11 12 12 12 12 12 12 13 14 15 15 15 15 14 15 15 15 13 10 10 13 13 13 11 17 20 20 17 17 15
7 6 7 6 7 8 6 8 10 11 12 13 13 13 13 14 13 13 13 13 14 15 16 17 16 15 14 16 16 15 14 11 12 15 12 14 14 19 21 20 18 16 15
11 10 11 11 11 8 9 9 7 11 12 13 14 14 13 13 14 14 15 15 15 15 16 16 13 14 14 14 14 15 15 13 15 13 13 13 13 20 22 20 18 17 17
9 9 8 9 11 11 9 8 10 12 10 13 14 15 14 14 14 15 16 17 17 17 18 17 17 14 14 13 14 13 12 12 14 13 14 14 14 20 22 21 19 18 17
8 8 8 8 8 9 10 9 8 9 11 12 11 12 14 13 13 14 14 15 17 18 19 17 16 15 16 15 14 13 11 12 14 11 14 12 18 22 23 22 20 19 17
8 8 8 8 8 7 7 11 11 10 12 14 18 14 9 10 12 11 12 13 17 18 19 17 14 15 13 13 13 12 13 12 16 13 12 9 19 24 24 23 21 21 19
5 7 7 7 7 7 7 7 6 9 10 9 8 10 11 4 6 9 11 14 15 19 20 19 18 17 14 12 11 12 14 11 15 11 9 12 21 24 24 24 23 22 21
3 6 6 8 8 7 5 7 7 7 7 7 6 6 2 4 6 9 9 11 11 14 20 20 20 18 14 12 10 11 10 13 12 12 10 16 23 25 25 24 23 23 22
3 5 7 6 7 7 6 4 4 4 4 4 6 6 6 3 3 4 4 6 4 7 8 13 13 12 15 12 12 12 15 15 10 11 13 18 24 25 25 26 24 24 24
2 3 5 6 6 6 5 5 5 4 5 4 5 6 5 4 5 3 2 5 4 4 6 9 8 13 16 17 15 15 16 13 10 9 12 18 21 25 26 27 27 26 25
3 2 4 5 5 5 5 4 5 6 5 7 6 6 5 5 5 5 4 3 3 4 6 8 7 10 14 16 16 16 15 15 16 10 9 17 18 25 28 28 28 27 26
4 3 3 4 4 6 6 7 6 6 7 7 7 8 10 7 7 6 6 4 4 3 5 6 10 10 10 12 16 17 17 15 16 13 11 12 21 22 28 29 30 28 27
5 3 4 5 6 7 8 8 8 7 8 8 9 11 12 11 10 10 8 7 6 6 7 4 8 12 11 11 15 16 14 17 14 16 12 12 16 17 22 27 28 29 29
4 4 4 5 7 8 9 9 8 9 9 10 10 10 13 13 13 12 10 9 8 6 7 6 6 8 11 13 12 13 13 14 17 17 13 12 12 13 14 27 29 29 30
4 5 6 7 8 10 10 10 10 11 10 10 10 11 13 13 14 13 12 11 11 9 9 8 7 6 9 9 14 13 13 13 16 14 17 15 15 14 11 18 26 28 29
4 6 7 6 8 9 9 9 9 9 9 9 9 10 13 11 13 12 12 13 12 10 10 10 11 8 9 10 9 14 14 14 13 14 17 13 15 17 15 14 14 15 26
4 7 8 9 9 9 9 9 9 9 10 9 9 13 13 12 13 13 11 12 12 13 14 14 12 12 9 7 7 12 9 13 16 14 13 15 14 17 15 15 14 12 14
6 7 9 10 12 10 8 8 9 9 9 10 10 12 13 13 13 12 12 12 13 12 15 15 15 11 10 7 7 9 4 3 5 14 13 14 18 13 17 16 12 17 16
7 8 8 11 12 10 11 9 8 9 9 10 10 9 10 12 13 14 14 13 13 12 12 14 15 18 13 10 15 8 4 7 5 1 7 8 17 14 13 17 18 15 17
7 7 9 11 12 10 12 10 12 11 12 10 11 11 11 13 14 14 15 15 15 12 14 13 13 15 14 14 8 13 17 3 4 1 2 5 4 10 17 12 15 17 17
7 8 9 11 12 12 12 11 10 12 11 11 11 15 14 13 14 14 15 15 15 12 14 16 16 16 14 14 13 10 13 14 14 9 6 9 2 6 7 13 13 12 17
7 8 10 11 13 12 12 12 13 14 14 12 13 12 12 11 11 14 14 14 15 15 15 14 15 18 16 15 14 13 13 11 13 11 13 14 18 10 10 6 11 11 11
Wind_Direction
44 274 211 190 159 154 154 148 138 133 134 146 170 167 163 160 160 158 163 173 174 172 162 161 160 154 156 157 159 158 158 156 158 157 152 140 137 134 129 124 122 113 112
301 251 175 216 168 167 166 162 154 156 152 153 164 170 167 165 170 172 180 181 184 182 169 165 166 162 158 163 161 160 162 165 172 153 149 145 144 138 133 125 117 119 118
346 237 185 204 179 171 170 168 167 174 176 178 174 178 181 188 183 187 194 199 203 198 192 185 178 175 173 168 167 168 169 178 175 155 161 160 153 144 138 129 121 130 131
12 140 183 152 183 174 183 192 183 190 199 201 197 202 204 204 203 206 203 207 208 213 208 200 201 194 188 182 178 176 176 178 148 152 178 164 158 154 145 130 137 137 135
48 88 87 308 239 212 199 203 205 202 206 213 214 213 212 216 221 220 218 217 220 218 217 217 209 206 193 186 187 181 178 163 157 177 182 174 160 160 149 141 146 142 146
56 70 63 6 336 316 266 227 223 224 221 216 222 221 223 221 218 224 225 220 220 226 224 216 217 204 195 181 189 184 179 167 165 198 183 176 172 165 150 151 145 141 134
39 34 45 32 24 14 15 358 294 245 237 236 230 227 226 228 231 226 224 221 222 224 224 216 200 197 193 176 182 195 184 167 191 196 188 185 178 169 151 148 148 152 149
66 56 55 58 48 42 31 30 27 11 324 256 245 242 237 233 234 236 237 229 222 225 230 211 207 190 183 178 182 193 183 174 208 200 198 188 169 171 154 151 157 158 154
63 59 50 45 56 72 49 29 36 30 26 16 342 274 258 255 248 247 245 241 234 229 230 234 206 190 192 180 180 187 169 184 207 210 201 199 170 170 161 156 163 163 162
54 45 37 36 38 38 38 31 42 40 36 47 41 11 318 269 273 253 251 240 232 236 228 224 206 198 200 187 188 176 168 190 217 207 214 203 176 171 167 164 168 163 165
57 44 37 39 45 39 37 32 46 44 50 43 28 21 10 309 271 274 271 259 238 236 224 218 207 202 194 194 193 168 163 207 214 212 211 172 187 176 171 170 172 170 169
59 50 39 37 36 38 47 41 42 43 39 37 30 13 334 310 10 302 256 274 266 243 222 212 206 198 195 206 198 169 201 213 211 216 208 177 193 181 178 177 176 173 174
27 44 52 47 32 26 27 13 21 19 15 17 19 8 355 354 330 328 295 223 220 248 245 221 213 212 209 212 208 200 203 209 215 218 211 191 197 188 184 178 181 179 177
359 50 67 53 42 31 6 11 1 357 351 346 345 349 343 340 339 328 324 340 290 245 241 247 219 214 219 216 214 205 207 205 214 208 215 193 211 192 190 182 186 183 186
193 101 79 53 48 31 5 346 336 331 325 322 309 308 310 309 309 313 307 299 278 338 274 223 239 232 220 220 214 206 202 205 209 217 213 189 221 201 192 190 189 188 188
160 126 91 70 32 358 341 331 320 316 315 306 299 296 293 284 282 282 279 263 257 213 255 311 259 220 231 222 218 211 206 206 204 211 222 200 211 222 193 194 191 192 190
133 116 52 14 5 350 332 330 320 311 305 297 294 291 285 279 272 271 269 257 242 234 237 255 286 254 215 217 227 211 205 203 208 203 209 225 206 221 209 195 198 191 191
108 65 17 2 348 342 331 318 305 302 299 294 288 285 282 279 275 273 266 262 256 236 234 229 221 263 258 209 210 217 208 204 201 206 204 217 217 211 210 198 197 195 193
49 12 357 348 344 335 323 311 305 302 296 295 293 286 285 284 280 272 268 267 264 256 242 238 233 217 254 262 211 209 203 205 209 201 208 209 217 212 205 204 202 196 197
25 357 340 335 327 323 316 309 303 298 292 295 291 287 289 284 280 276 272 270 268 261 251 238 238 231 237 239 295 221 208 201 205 205 203 205 211 212 205 200 206 196 198
3 347 343 326 330 331 322 315 309 304 300 292 284 285 283 283 281 277 273 272 267 259 256 245 245 238 232 225 244 269 210 210 199 209 201 202 211 209 200 212 200 195 197
345 346 340 337 330 324 315 312 299 297 290 291 287 280 279 280 278 274 269 268 267 268 263 257 246 244 243 218 222 243 262 224 272 198 203 204 203 209 208 196 203 195 191
347 343 330 327 324 320 315 308 300 293 284 282 281 285 280 280 281 279 274 268 266 263 262 257 253 244 247 232 219 218 216 225 166 215 200 214 203 205 207 205 204 199 199
337 331 329 327 323 319 315 306 303 297 295 296 295 290 287 279 274 275 273 269 265 263 259 259 254 253 245 238 224 221 239 159 225 178 269 218 229 211 205 206 203 205 200
333 338 326 319 316 315 314 310 305 298 296 297 292 295 289 285 274 265 264 269 267 264 263 258 256 252 245 245 233 227 221 234 237 244 227 204 233 224 218 210 197 209 207
338 325 319 315 312 312 312 311 305 299 299 296 294 294 289 286 283 273 269 264 262 263 262 260 260 255 247 246 240 237 233 216 222 219 237 206 203 202 207 220 208 204 207